Hourly Data Report for June 29, 2022

MIRAMICHI RCS
NEW BRUNSWICK
Current Station Operator: ECCC - MSC

47°00'34.000" N
65°27'54.000" W
33.00 m
8100989
71744
ACQ

Download Data

Hourly Data (June 2022)
Hourly Data Report for June 29, 2022
TIME
LST
Temp Definition
°C
Dew Point Definition
°C
Rel Hum Definition
%
Precip. Amount Definition
mm

Wind Dir Definition
10's deg

Wind Spd Definition
km/h
Visibility Definition
km
Stn Press Definition
kPa
Hmdx Definition


Wind Chill Definition


Weather Definition


00:00 15.5 8.2 62 0.0 29 9   101.47     LegendNANA
01:00 12.9 8.7 75 0.0 25 3   101.53     LegendNANA
02:00 11.9 8.4 79 0.0 26 8   101.59     LegendNANA
03:00 10.8 7.7 81 0.0 25 4   101.61     LegendNANA
04:00 9.9 7.0 82 0.0 25 4   101.63     LegendNANA
05:00 8.9 7.1 88 0.0 23 5   101.71     LegendNANA
06:00 10.9 8.7 86 0.0 22 1   101.73     LegendNANA
07:00 13.3 8.4 72 0.0 23 7   101.78     LegendNANA
08:00 17.3 9.4 60 0.0 25 6   101.78     LegendNANA
09:00 20.1 9.5 51 0.0 20 6   101.79     LegendNANA
10:00 23.2 7.8 37 0.0 20 8   101.76     LegendNANA
11:00 24.3 8.0 35 0.0 23 15   101.72 25   LegendNANA
12:00 24.9 9.8 38 0.0 24 17   101.70 26   LegendNANA
13:00 25.5 8.2 33 0.0 22 17   101.66 26   LegendNANA
14:00 25.9 7.5 31 0.0 25 13   101.58 26   LegendNANA
15:00 26.8 9.2 33 0.0 20 13   101.51 28   LegendNANA
16:00 27.0 9.5 33 0.0 19 12   101.46 28   LegendNANA
17:00 27.1 8.4 31 0.0 22 16   101.39 28   LegendNANA
18:00 26.7 9.7 34 0.0 21 15   101.37 28   LegendNANA
19:00 25.2 9.6 37 0.0 21 14   101.37 26   LegendNANA
20:00 22.9 11.2 48 0.0 19 10   101.41 25   LegendNANA
21:00 21.5 10.6 50 0.0 20 16   101.43     LegendNANA
22:00 19.8 10.6 55 0.0 20 11   101.42     LegendNANA
23:00 18.7 10.2 58 0.0 19 13   101.39     LegendNANA

Notes on Data Quality.

Legend

  • E = Estimated
  • M = Missing
  • NA = Not Available*
  • [empty] = Indicates an unobserved value
Date modified: